Regional Weather Roundup
Issued by NWS

Home | Current Version | Previous Version | Text Only | Print | Product List | Glossary On
Versions: 1 2 3 4 5 6 7 8 9 10 11 12 13 14 15 16 17 18 19 20 21 22 23 24 25 26 27 28 29 30 31 32 33 34 35 36 37 38 39 40 41 42 43 44 45 46 47 48 49 50
000
ASUS45 KREV 311610
RWRNV
NEVADA REGIONAL WEATHER ROUNDUP
NATIONAL WEATHER SERVICE RENO NV
800 AM PST SAT JAN 31 2015

NOTE: "FAIR" INDICATES FEW OR NO CLOUDS BELOW 12,000 FEET WITH NO
SIGNIFICANT WEATHER AND/OR OBSTRUCTIONS TO VISIBILITY.

NVZ001-003-004-311700-
WESTERN NEVADA

CITY           SKY/WX    TMP DP  RH WIND       PRES   REMARKS
RENO           PTCLDY    28  23  81 CALM      30.21R
CARSON CITY    FAIR      25  23  93 SE3       30.17S
SLIDE MTN        N/A     25  -2  30 NE33        N/A
FALLON         PTCLDY    27  25  92 SW3       30.20R
LOVELOCK       PTCLDY    20  18  92 CALM      30.19R
HAWTHORNE      CLEAR     36  30  80 CALM      30.18R
$$

NVZ002-CAZ072-073-311700-
NORTHERN AND CENTRAL SIERRA

CITY           SKY/WX    TMP DP  RH WIND       PRES   REMARKS
S. LAKE TAHOE  PTCLDY    31  18  58 CALM      30.12R
TRUCKEE        CLEAR     21  18  86 CALM      30.16R
SQUAW VLY 8000   N/A     27  16  63 CALM        N/A
SUSANVILLE     CLEAR     27  19  74 W5        30.21
BLUE CANYON    CLEAR     43  -1  16 NE10G18   30.06R
MAMMOTH LAKES  FAIR      32  25  74 W8        30.13R
BRIDGEPORT     CLOUDY    31  25  78 CALM      30.11S
$$

NVZ030-031-036-311700-
NORTHERN NEVADA

CITY           SKY/WX    TMP DP  RH WIND       PRES   REMARKS
ELKO           SUNNY     27  23  85 W3        30.11R
WINNEMUCCA     CLEAR     24  22  91 S6        30.18R
WENDOVER       SUNNY     37  23  56 CALM      30.06R
$$

NVZ035-037-311700-
CENTRAL NEVADA

CITY           SKY/WX    TMP DP  RH WIND       PRES   REMARKS
ELY            CLOUDY    32  29  88 N12       30.06R
EUREKA           N/A     27  24  89 CALM      30.10S
$$

NVZ013-014-311700-
SOUTH CENTRAL NEVADA

CITY           SKY/WX    TMP DP  RH WIND       PRES   REMARKS
TONOPAH        MOSUNNY   39  27  62 N23       30.04R
$$

NVZ017-020-022-311700-
SOUTHERN NEVADA

CITY           SKY/WX    TMP DP  RH WIND       PRES   REMARKS
LAS VEGAS      CLOUDY    50  46  86 S9        29.88R
N. LAS VEGAS   CLOUDY    52  42  69 N9        29.90R
NELLIS AFB     CLOUDY    51  48  90 W2        29.91R
HENDERSON      CLOUDY    49  46  90 CALM      29.93R
MERCURY        CLOUDY    48  39  71 NE12      29.94R
$$


USA.gov is the U.S. government's official web portal to all federal, state and local government web resources and services.